[[{"header":{"parameterUnit":"m.s-1","parameterCategory":1,"la1":30.2991,"la2":30.254,"lo1":-89.0895,"lo2":-89.0444,"dy":0.0017,"dx":0.0017,"nx":28,"ny":28,"refTime":"2025-12-10T03:00:00:Z","depth":0,"parameterNumber":2,"parameterNumberName":"U-component_of_WINDS"},"data":[0,0,0,0,0,0,0,0,0,0,0,0,0,0,0,0,0,0,0,0,0,0,0,0,0,0,0,0,0,0,0,0,0,0,0,0,0,0,0,0,0,0,0,0,0,0,0,0,0,0,0,0,0,0,0,0,0,0,-1.0599,-1.06,0,-1.0663,-1.0664,-1.0665,-1.0596,-1.0594,-1.0591,-1.0589,-1.0659,-1.0663,-1.0667,0,0,0,0,0,0,0,0,0,0,0,0,0,-1.0423,-1.0427,-1.0599,-1.06,-1.0601,-1.0663,-1.0664,-1.0665,-1.0597,-1.0594,-1.059,-1.0587,-1.0657,-1.0662,-1.0668,0,0,0,0,0,0,0,0,0,0,0,0,0,-1.0495,-1.0428,-1.0599,-1.0574,-1.0573,-1.0663,-1.0664,-1.0665,-1.0598,-1.0594,-1.059,-1.0586,-1.0656,-1.0662,-1.0668,-1.0787,0,0,-1.0688,-1.0691,0,0,0,0,0,0,0,0,-1.0491,-1.0501,-1.0577,-1.0576,-1.0575,-1.0618,-1.0627,-1.0706,-1.0599,-1.0588,-1.0589,-1.0584,-1.0649,-1.0655,-1.0676,-1.0791,-1.0794,-1.0689,-1.0693,-1.0695,-1.0697,0,0,0,0,0,0,0,-1.0486,-1.0498,-1.0625,-1.0579,-1.0577,-1.0561,-1.0567,-1.0642,-1.064,-1.0589,-1.0584,-1.0592,-1.0647,-1.067,-1.0677,-1.0795,-1.0689,-1.0694,-1.0698,-1.0701,-1.101,-1.1015,0,0,0,0,0,0,-1.0483,-1.0494,-1.0623,-1.0627,-1.0522,-1.0568,-1.0574,-1.0608,-1.0639,-1.064,-1.0596,-1.0589,-1.0661,-1.067,-1.068,-1.0822,-1.0695,-1.0701,-1.0705,-1.1006,-1.1011,-1.1016,0,0,0,0,0,0,-1.0479,-1.0495,-1.062,-1.0559,-1.0574,-1.0575,-1.0613,-1.0611,-1.0634,-1.0644,-1.0644,-1.0619,-1.0658,-1.067,-1.0761,-1.0823,-1.0704,-1.071,-1.1001,-1.1008,-1.1014,-1.1107,0,0,0,0,0,0,-1.0475,-1.0494,-1.0539,-1.0561,-1.0577,-1.07,-1.0617,-1.0615,-1.0645,-1.0637,-1.0666,-1.0667,-1.0656,-1.0752,-1.0767,-1.083,-1.0715,-1.0996,-1.1004,-1.1012,-1.1099,-1.1116,-1.1131,0,0,0,0,0,-1.0469,-1.0563,-1.0541,-1.0557,-1.0633,-1.0703,-1.0713,-1.0697,-1.065,-1.0696,-1.0702,-1.0666,-1.0813,-1.0761,-1.0779,-1.0844,-1.0992,-1.1002,-1.1011,-1.1092,-1.1113,-1.1131,0,0,0,0,0,0,-1.0551,-1.0566,-1.0542,-1.0646,-1.0674,-1.0692,-1.0749,-1.072,-1.0763,-1.0754,-1.0733,-1.074,-1.0837,-1.0849,-1.0791,-1.0961,-1.0895,-1.0909,-1.095,-1.0971,-1.0987,-1.0983,-1.0721,0,0,0,0,0,-1.0581,-1.0635,-1.0646,-1.0737,-1.0752,-1.0748,-1.0778,-1.0763,-1.0792,-1.0804,-1.0816,-1.0847,-1.09,-1.0935,-1.0984,-1.1099,-1.1105,-1.1153,-1.1169,-1.1182,-1.1195,-1.1258,-1.1279,-1.1048,-1.1048,-1.1048,0,0,-1.0644,-1.0659,-1.0695,-1.0754,-1.0774,-1.0832,-1.0759,-1.0824,-1.0867,-1.0814,-1.09,-1.091,-1.0943,-1.1046,-1.1092,-1.106,-1.126,-1.1195,-1.1205,-1.1211,-1.127,-1.1292,-1.1312,-1.1055,-1.1054,-1.1053,0,0,-1.079,-1.0806,-1.0884,-1.0904,-1.0934,-1.0931,-1.0949,-1.0971,-1.0976,-1.1061,-1.1023,-1.1074,-1.1166,-1.1191,-1.1216,-1.1369,-1.1339,-1.1385,-1.1472,-1.1533,-1.1551,-1.1567,-1.1624,-1.1644,-1.1398,-1.1398,-1.1398,0,-1.0866,-1.0951,-1.0928,-1.0996,-1.1024,-1.0975,-1.1055,-1.1077,-1.1122,-1.1143,-1.1105,-1.1218,-1.1237,-1.1346,-1.1383,-1.1404,-1.1426,-1.1384,-1.155,-1.1566,-1.1581,-1.1634,-1.1656,-1.1404,-1.1403,-1.1402,-1.1402,0,-1.1043,-1.1103,-1.1162,-1.1206,-1.124,-1.1313,-1.1303,-1.134,-1.1322,-1.1322,-1.1411,-1.143,-1.1483,-1.1507,-1.149,-1.1614,-1.1593,-1.1553,-1.1486,-1.1609,-1.1659,-1.1679,-1.1412,-1.141,-1.1408,-1.1407,0,0,-1.1246,-1.1274,-1.1296,-1.1316,-1.1344,-1.1391,-1.1462,-1.1512,-1.1545,-1.1577,-1.1638,-1.1715,-1.1678,-1.1706,-1.1691,-1.1744,-1.1866,-1.1698,-1.1698,-1.173,-1.2006,-1.2038,-1.2062,-1.1845,-1.1849,-1.1852,-1.2004,0,-1.1394,-1.1516,-1.1497,-1.1617,-1.1672,-1.1626,-1.1688,-1.1714,-1.1716,-1.1764,-1.1766,-1.1823,-1.1768,-1.1785,-1.1835,-1.1841,-1.1922,-1.1829,-1.1904,-1.1906,-1.19,-1.2088,-1.2122,-1.2265,-1.2023,-1.2026,-1.2029,0,-1.1583,-1.1621,-1.1746,-1.1765,-1.1788,-1.1844,-1.1888,-1.1934,-1.1962,-1.1959,-1.199,-1.1965,-1.2038,-1.1967,-1.2068,-1.2005,-1.2034,-1.2041,-1.2046,-1.2055,-1.1977,-1.2105,-1.231,-1.2333,-1.2059,-1.2057,-1.2055,0,-1.1722,-1.1803,-1.1888,-1.1906,-1.193,-1.1971,-1.1983,-1.2007,-1.2038,-1.2076,-1.2096,-1.2143,-1.217,-1.2207,-1.2196,-1.2145,-1.23,-1.2228,-1.2302,-1.2302,-1.2339,-1.2338,-1.2555,-1.2353,-1.2353,-1.2352,-1.2352,0,-1.1891,-1.1969,-1.1951,-1.2004,-1.209,-1.2067,-1.2154,-1.2161,-1.2182,-1.2236,-1.2198,-1.225,-1.2231,-1.2282,-1.2273,-1.2359,-1.2371,-1.2372,-1.237,-1.2377,-1.2378,-1.2398,-1.2389,-1.2358,-1.2357,-1.2356,-1.2355,0,-1.2061,-1.2051,-1.2142,-1.2156,-1.2162,-1.2226,-1.2239,-1.2289,-1.2287,-1.2356,-1.2371,-1.2368,-1.2426,-1.2418,-1.2482,-1.2477,-1.2584,-1.2568,-1.2575,-1.2572,-1.2647,-1.2641,-1.2888,-1.292,-1.2695,-1.2697,-1.2699,0,-1.2171,-1.223,-1.2251,-1.2284,-1.2299,-1.2352,-1.2383,-1.2362,-1.2396,-1.2431,-1.2478,-1.2532,-1.2574,-1.2669,-1.2674,-1.2723,-1.271,-1.2793,-1.2717,-1.2723,-1.2714,-1.2712,-1.2718,-1.2809,-1.2812,-1.2814,-1.2815,0,-1.2369,-1.236,-1.2406,-1.245,-1.2487,-1.2521,-1.2551,-1.258,-1.2562,-1.2603,-1.2661,-1.2693,-1.2758,-1.2813,-1.2859,-1.2873,-1.2843,-1.2838,-1.2858,-1.2869,-1.2871,-1.2873,-1.2618,-1.2834,-1.2832,-1.2831,-1.283,-1.2829,-1.2514,-1.2565,-1.2587,-1.2639,-1.2659,-1.2687,-1.2735,-1.2738,-1.2786,-1.2836,-1.2821,-1.2887,-1.2913,-1.2971,-1.2989,-1.3042,-1.3011,-1.304,-1.3048,-1.3056,-1.3066,-1.286,-1.3049,-1.3049,-1.3048,-1.3048,-1.3048,0,-1.2711,-1.2723,-1.277,-1.2813,-1.2854,-1.2818,-1.2849,-1.2887,-1.2945,-1.297,-1.3012,-1.3079,-1.3132,-1.3139,-1.319,-1.323,-1.3217,-1.3244,-1.3243,-1.3247,-1.3089,-1.3068,-1.3254,-1.3254,-1.3254,-1.3254,-1.3253,-1.3253,-1.2819,-1.2903,-1.2897,-1.2991,-1.3002,-1.3066,-1.3087,-1.3114,-1.3134,-1.321,-1.3253,-1.3256,-1.3275,-1.3326,-1.3373,-1.3374,-1.3395,-1.3428,-1.3424,-1.3278,-1.3258,-1.3238,-1.3218,-1.3433,-1.3433,-1.3578,-1.3579,-1.358]},{"header":{"parameterUnit":"m.s-1","parameterCategory":1,"la1":30.2991,"la2":30.254,"lo1":-89.0895,"lo2":-89.0444,"dy":0.0017,"dx":0.0017,"nx":28,"ny":28,"refTime":"2025-12-10T03:00:00:Z","depth":0,"parameterNumber":3,"parameterNumberName":"V-component_of_WINDS"},"data":[0,0,0,0,0,0,0,0,0,0,0,0,0,0,0,0,0,0,0,0,0,0,0,0,0,0,0,0,0,0,0,0,0,0,0,0,0,0,0,0,0,0,0,0,0,0,0,0,0,0,0,0,0,0,0,0,0,0,-4.9866,-4.9867,0,-4.9998,-5.0,-5.0001,-4.9903,-4.9899,-4.9895,-4.9891,-5.0026,-5.0033,-5.0041,0,0,0,0,0,0,0,0,0,0,0,0,0,-4.9527,-4.9534,-4.9866,-4.9868,-4.9869,-4.9998,-5.0,-5.0002,-4.9904,-4.9899,-4.9894,-4.9889,-5.0023,-5.0032,-5.0041,0,0,0,0,0,0,0,0,0,0,0,0,0,-4.9669,-4.9536,-4.9866,-4.9836,-4.9835,-4.9998,-5.0,-5.0002,-4.9905,-4.9899,-4.9892,-4.9886,-5.002,-5.0031,-5.0043,-5.0242,0,0,-5.0077,-5.0082,0,0,0,0,0,0,0,0,-4.9661,-4.9681,-4.9839,-4.9838,-4.9837,-4.9928,-4.993,-5.0082,-4.9907,-4.9879,-4.9891,-4.9883,-4.9998,-5.0011,-5.005,-5.0248,-5.0254,-5.0078,-5.0085,-5.009,-5.0093,0,0,0,0,0,0,0,-4.9651,-4.9675,-4.9918,-4.9841,-4.984,-4.9816,-4.9829,-4.9958,-4.9973,-4.988,-4.9874,-4.9891,-4.9997,-5.0039,-5.0052,-5.0256,-5.0078,-5.0088,-5.0095,-5.01,-5.0622,-5.0628,0,0,0,0,0,0,-4.9644,-4.9667,-4.9914,-4.9922,-4.9731,-4.9827,-4.9842,-4.9905,-4.9971,-4.9975,-4.9896,-4.9886,-5.0023,-5.0039,-5.0057,-5.0294,-5.009,-5.0101,-5.0107,-5.0615,-5.0623,-5.0631,0,0,0,0,0,0,-4.9637,-4.9667,-4.9909,-4.9793,-4.9822,-4.984,-4.9912,-4.9911,-4.9954,-4.9983,-4.9985,-4.9937,-5.0019,-5.0041,-5.0196,-5.0297,-5.0106,-5.0116,-5.0606,-5.0617,-5.0627,-5.0769,0,0,0,0,0,0,-4.9628,-4.9665,-4.9742,-4.9795,-4.9828,-5.0047,-4.9918,-4.9918,-4.9974,-4.9961,-5.0022,-5.0026,-5.0015,-5.018,-5.0207,-5.0309,-5.0125,-5.0597,-5.0611,-5.0624,-5.0756,-5.0783,-5.0807,0,0,0,0,0,-4.9616,-4.9777,-4.9746,-4.9776,-4.9924,-5.0053,-5.0072,-5.0056,-4.9982,-5.0059,-5.0077,-5.0024,-5.0281,-5.0196,-5.0227,-5.0334,-5.0591,-5.0607,-5.0623,-5.0744,-5.0778,-5.0806,0,0,0,0,0,0,-4.9735,-4.9783,-4.975,-4.9933,-4.9989,-5.0036,-5.0132,-5.0093,-5.0172,-5.0157,-5.0134,-5.0149,-5.0311,-5.0337,-5.0242,-5.0528,-5.0424,-5.0447,-5.0506,-5.0538,-5.0564,-5.0554,-5.0135,0,0,0,0,0,-4.9782,-4.9883,-4.9919,-5.0077,-5.0107,-5.0115,-5.017,-5.0153,-5.0211,-5.0235,-5.0265,-5.0323,-5.0416,-5.0478,-5.0566,-5.0758,-5.0769,-5.0846,-5.0872,-5.0893,-5.0913,-5.1016,-5.105,-5.0683,-5.0683,-5.0682,0,0,-4.9881,-4.992,-4.9985,-5.0102,-5.0144,-5.0248,-5.0136,-5.0251,-5.0328,-5.0252,-5.0401,-5.0425,-5.0487,-5.0662,-5.074,-5.0689,-5.1017,-5.0913,-5.093,-5.0939,-5.1035,-5.107,-5.1101,-5.0693,-5.0691,-5.069,0,0,-5.0115,-5.0155,-5.029,-5.0334,-5.0398,-5.0402,-5.0435,-5.0488,-5.05,-5.0649,-5.0594,-5.0684,-5.0846,-5.0893,-5.0938,-5.1187,-5.1141,-5.1216,-5.1351,-5.1451,-5.148,-5.1506,-5.1595,-5.1627,-5.1236,-5.1236,-5.1237,0,-5.023,-5.0385,-5.0364,-5.0484,-5.0536,-5.0471,-5.0608,-5.0651,-5.0742,-5.0779,-5.072,-5.0921,-5.0959,-5.1143,-5.1203,-5.1242,-5.1278,-5.121,-5.1478,-5.1503,-5.1527,-5.1611,-5.1645,-5.1245,-5.1244,-5.1243,-5.1242,0,-5.0523,-5.0631,-5.0733,-5.0821,-5.0885,-5.1012,-5.101,-5.1077,-5.1054,-5.1064,-5.1215,-5.1258,-5.1352,-5.1394,-5.1373,-5.1575,-5.1541,-5.1481,-5.1375,-5.1571,-5.165,-5.1682,-5.1258,-5.1255,-5.1252,-5.125,0,0,-5.0838,-5.0911,-5.0949,-5.0988,-5.1053,-5.1136,-5.126,-5.1352,-5.141,-5.1474,-5.1576,-5.1714,-5.1658,-5.1709,-5.1692,-5.178,-5.1974,-5.1708,-5.1709,-5.1756,-5.2198,-5.2244,-5.2282,-5.1943,-5.1949,-5.1954,-5.2193,0,-5.1075,-5.1291,-5.1274,-5.1478,-5.1577,-5.1516,-5.1623,-5.1675,-5.1687,-5.1772,-5.1784,-5.1883,-5.1801,-5.1831,-5.1915,-5.1933,-5.2062,-5.1915,-5.2038,-5.2043,-5.2025,-5.2324,-5.2373,-5.2597,-5.2224,-5.2229,-5.2233,0,-5.1381,-5.1455,-5.1668,-5.1718,-5.1759,-5.1856,-5.1938,-5.2021,-5.2077,-5.2079,-5.2136,-5.2104,-5.2227,-5.2118,-5.2287,-5.2187,-5.2236,-5.2252,-5.226,-5.2272,-5.2151,-5.2344,-5.2668,-5.2702,-5.2281,-5.2277,-5.2274,0,-5.1589,-5.1742,-5.1889,-5.1924,-5.1985,-5.2055,-5.2083,-5.2133,-5.2189,-5.2261,-5.2297,-5.2383,-5.243,-5.2496,-5.2487,-5.2409,-5.266,-5.255,-5.2665,-5.2665,-5.2722,-5.2719,-5.3059,-5.2752,-5.2752,-5.2751,-5.275,0,-5.1857,-5.199,-5.1983,-5.2074,-5.2221,-5.22,-5.2346,-5.2366,-5.2411,-5.2504,-5.2455,-5.2543,-5.2526,-5.2613,-5.2607,-5.2748,-5.2769,-5.2774,-5.2771,-5.278,-5.2779,-5.2812,-5.2797,-5.276,-5.2758,-5.2756,-5.2755,0,-5.2115,-5.2116,-5.2272,-5.2317,-5.2331,-5.2437,-5.2475,-5.256,-5.2566,-5.2685,-5.2711,-5.2722,-5.2823,-5.282,-5.2934,-5.293,-5.3103,-5.3082,-5.3085,-5.308,-5.3196,-5.3185,-5.3571,-5.362,-5.328,-5.3283,-5.3286,0,-5.2286,-5.2387,-5.2442,-5.25,-5.2533,-5.2629,-5.2685,-5.2668,-5.2729,-5.28,-5.2877,-5.2972,-5.3048,-5.3211,-5.3229,-5.3316,-5.3296,-5.3425,-5.3309,-5.3314,-5.3299,-5.3293,-5.3303,-5.3448,-5.3452,-5.3455,-5.3458,0,-5.259,-5.2585,-5.2669,-5.2753,-5.2822,-5.2887,-5.2947,-5.2998,-5.2986,-5.3057,-5.3159,-5.3218,-5.3334,-5.3429,-5.3512,-5.354,-5.3498,-5.3494,-5.3525,-5.3535,-5.3533,-5.3536,-5.3148,-5.3486,-5.3483,-5.3481,-5.3479,-5.3478,-5.281,-5.2896,-5.2948,-5.3043,-5.3086,-5.3142,-5.3224,-5.3241,-5.3326,-5.3419,-5.3403,-5.3517,-5.3569,-5.3675,-5.3711,-5.3799,-5.3754,-5.3799,-5.3811,-5.3823,-5.3836,-5.3518,-5.3814,-5.3813,-5.3813,-5.3812,-5.3811,0,-5.3112,-5.3141,-5.3228,-5.3313,-5.3388,-5.334,-5.3403,-5.3468,-5.3569,-5.3621,-5.3696,-5.3813,-5.3905,-5.3929,-5.4017,-5.4083,-5.4066,-5.4107,-5.4103,-5.411,-5.3871,-5.3836,-5.412,-5.4119,-5.4119,-5.4119,-5.4119,-5.4119,-5.3277,-5.3421,-5.3422,-5.3585,-5.3613,-5.3725,-5.3765,-5.3817,-5.3858,-5.399,-5.4066,-5.4081,-5.4122,-5.4212,-5.4294,-5.4298,-5.4333,-5.4383,-5.438,-5.4157,-5.4126,-5.4097,-5.4063,-5.4391,-5.4391,-5.4611,-5.4613,-5.4614]}]]